Location: Unspecified
(0.0000°N, 0.0000°E)
Time: 21:52:51
(UTC+00:00)

Tiros 1 despin weight - All Passes

Search period start: 27 October 2021 00:00
Search period end: 06 November 2021 00:00
Orbit: 592 x 641 km, 48.2° (Epoch: 27 October)

Date Brightness Start Highest point End Pass type
(mag) Time Alt. Az. Time Alt. Az. Time Alt. Az.
27 Oct - 01:02:25 10° SW 01:06:44 45° NW 01:11:05 10° NNE night (unlit)
27 Oct - 11:30:05 10° N 11:33:36 21° NE 11:37:04 10° E daylight
27 Oct - 13:11:04 10° WNW 13:14:58 28° SW 13:18:50 10° S daylight
27 Oct - 23:37:29 10° SSW 23:41:32 33° SE 23:45:37 10° ENE night (unlit)
28 Oct - 01:19:55 10° W 01:22:54 17° NW 01:25:55 10° N night (unlit)
28 Oct - 11:45:15 10° NNW 11:49:46 57° NE 11:54:13 10° SE daylight
28 Oct - 13:30:11 10° WSW 13:31:09 11° SW 13:32:09 10° SW daylight
28 Oct - 23:53:11 10° SW 23:57:39 86° NW 00:02:11 10° NE night (unlit)
29 Oct - 10:22:35 10° NNE 10:24:27 12° NE 10:26:18 10° ENE daylight
29 Oct - 12:01:26 10° NW 12:05:53 50° SW 12:10:18 10° SSE daylight
29 Oct - 22:29:18 10° S 22:32:27 19° SE 22:35:37 10° E night (unlit)
30 Oct - 00:09:52 10° WSW 00:13:48 30° NW 00:17:47 10° NNE night (unlit)
30 Oct - 10:36:34 10° NNW 10:40:40 31° NE 10:44:43 10° ESE daylight
30 Oct - 12:18:45 10° W 12:22:02 19° SW 12:25:18 10° S daylight
30 Oct - 22:44:17 10° SSW 22:48:36 50° SE 22:52:57 10° NE night (unlit)
31 Oct - 00:28:26 10° WNW 00:30:01 12° NW 00:31:36 10° NNW night (unlit)
31 Oct - 10:52:10 10° NW 10:56:48 86° NE 11:01:23 10° SE daylight
31 Oct - 21:22:44 10° SE 21:23:20 10° SE 21:23:56 10° ESE night (unlit)
31 Oct - 23:00:22 10° SW 23:04:43 56° NW 23:09:07 10° NNE night (unlit)
01 Nov - 09:28:23 10° N 09:31:33 18° NE 09:34:41 10° E daylight
01 Nov - 11:08:44 10° WNW 11:12:56 34° SW 11:17:05 10° SSE daylight
01 Nov - 21:35:45 10° S 21:39:32 27° SE 21:43:19 10° ENE night (unlit)
01 Nov - 23:17:32 10° W 23:20:53 21° NW 23:24:14 10° N night (unlit)
02 Nov - 09:43:15 10° NNW 09:47:43 46° NE 09:52:08 10° SE daylight
02 Nov - 11:26:52 10° W 11:29:06 13° SW 11:31:20 10° SSW daylight
02 Nov - 21:51:14 10° SW 21:55:39 77° SE 22:00:06 10° NE night (unlit)
03 Nov - 09:59:14 10° NW 10:03:50 63° SW 10:08:23 10° SSE daylight
03 Nov - 20:27:49 10° SSE 20:30:26 15° SE 20:33:02 10° E night (unlit)
03 Nov - 22:07:41 10° WSW 22:11:46 36° NW 22:15:54 10° NNE night (unlit)
04 Nov - 08:34:42 10° N 08:38:36 26° NE 08:42:27 10° ESE daylight
04 Nov - 10:16:15 10° WNW 10:19:58 24° SW 10:23:40 10° S daylight
04 Nov - 20:42:26 10° SSW 20:46:35 40° SE 20:50:45 10° ENE visible
04 Nov - 22:25:37 10° W 22:27:58 14° NW 22:30:18 10° NNW night (unlit)
05 Nov - 08:50:06 10° NNW 08:54:44 70° NE 08:59:20 10° SE daylight
05 Nov - 20:58:19 10° SW 21:02:41 69° NW 21:07:07 10° NNE visible
